Year,Month,Day,Hour,Minute,Value (Times are PST for windgust in km/hr)
2017,06,07,00,00,3.20
2017,06,07,00,01,1.60
2017,06,07,00,02,1.60
2017,06,07,00,03,1.60
2017,06,07,00,06,1.60
2017,06,07,00,07,3.20
2017,06,07,00,08,4.80
2017,06,07,00,09,4.80
2017,06,07,00,10,6.40
2017,06,07,00,11,6.40
2017,06,07,00,12,6.40
2017,06,07,00,13,6.40
2017,06,07,00,14,4.80
2017,06,07,00,15,4.80
2017,06,07,00,16,4.80
2017,06,07,00,17,3.20
2017,06,07,00,18,3.20
2017,06,07,00,19,1.60
2017,06,07,00,21,3.20
2017,06,07,00,22,4.80
2017,06,07,00,23,4.80
2017,06,07,00,24,4.80
2017,06,07,00,25,4.80
2017,06,07,00,26,4.80
2017,06,07,00,27,4.80
2017,06,07,00,28,3.20
2017,06,07,00,29,4.80
2017,06,07,00,30,4.80
2017,06,07,00,31,4.80
2017,06,07,00,32,4.80
2017,06,07,00,33,6.40
2017,06,07,00,34,6.40
2017,06,07,00,35,6.40
2017,06,07,00,36,6.40
2017,06,07,00,37,8.10
2017,06,07,00,38,6.40
2017,06,07,00,39,6.40
2017,06,07,00,40,6.40
2017,06,07,00,41,6.40
2017,06,07,00,42,6.40
2017,06,07,00,43,4.80
2017,06,07,00,44,4.80
2017,06,07,00,45,6.40
2017,06,07,00,46,6.40
2017,06,07,00,47,4.80
2017,06,07,00,48,6.40
2017,06,07,00,49,4.80
2017,06,07,00,50,6.40
2017,06,07,00,51,8.10
2017,06,07,00,52,6.40
2017,06,07,00,53,6.40
2017,06,07,00,54,4.80
2017,06,07,00,55,6.40
2017,06,07,00,56,6.40
2017,06,07,00,57,6.40
2017,06,07,00,58,4.80
2017,06,07,00,59,6.40
2017,06,07,01,00,4.80
2017,06,07,01,01,4.80
2017,06,07,01,02,4.80
2017,06,07,01,03,3.20
2017,06,07,01,04,4.80
2017,06,07,01,05,4.80
2017,06,07,01,06,8.10
2017,06,07,01,07,6.40
2017,06,07,01,08,4.80
2017,06,07,01,09,4.80
2017,06,07,01,10,9.60
2017,06,07,01,11,6.40
2017,06,07,01,12,9.60
2017,06,07,01,13,11.30
2017,06,07,01,14,11.30
2017,06,07,01,15,9.60
2017,06,07,01,16,9.60
2017,06,07,01,17,6.40
2017,06,07,01,18,6.40
2017,06,07,01,19,9.60
2017,06,07,01,20,6.40
2017,06,07,01,21,4.80
2017,06,07,01,22,6.40
2017,06,07,01,23,6.40
2017,06,07,01,24,6.40
2017,06,07,01,25,6.40
2017,06,07,01,26,4.80
2017,06,07,01,27,4.80
2017,06,07,01,28,6.40
2017,06,07,01,29,8.10
2017,06,07,01,30,6.40
2017,06,07,01,31,6.40
2017,06,07,01,32,6.40
2017,06,07,01,33,6.40
2017,06,07,01,34,6.40
2017,06,07,01,35,6.40
2017,06,07,01,36,1.60
2017,06,07,01,37,3.20
2017,06,07,01,38,3.20
2017,06,07,01,39,3.20
2017,06,07,01,41,3.20
2017,06,07,01,42,3.20
2017,06,07,01,43,3.20
2017,06,07,01,44,3.20
2017,06,07,01,45,1.60
2017,06,07,01,46,1.60
2017,06,07,01,47,4.80
2017,06,07,01,48,4.80
2017,06,07,01,49,3.20
2017,06,07,01,50,3.20
2017,06,07,01,51,3.20
2017,06,07,01,52,3.20
2017,06,07,01,53,3.20
2017,06,07,01,54,4.80
2017,06,07,01,55,4.80
2017,06,07,01,56,3.20
2017,06,07,01,57,3.20
2017,06,07,01,58,3.20
2017,06,07,01,59,4.80
2017,06,07,02,00,4.80
2017,06,07,02,01,3.20
2017,06,07,02,02,1.60
2017,06,07,02,03,3.20
2017,06,07,02,04,3.20
2017,06,07,02,05,3.20
2017,06,07,02,06,1.60
2017,06,07,02,07,1.60
2017,06,07,02,08,1.60
2017,06,07,02,09,1.60
2017,06,07,02,10,1.60
2017,06,07,02,12,1.60
2017,06,07,02,13,3.20
2017,06,07,02,14,3.20
2017,06,07,02,15,3.20
2017,06,07,02,16,3.20
2017,06,07,02,17,3.20
2017,06,07,02,18,4.80
2017,06,07,02,19,4.80
2017,06,07,02,20,3.20
2017,06,07,02,21,3.20
2017,06,07,02,22,3.20
2017,06,07,02,23,3.20
2017,06,07,02,24,3.20
2017,06,07,02,25,3.20
2017,06,07,02,26,3.20
2017,06,07,02,27,3.20
2017,06,07,02,28,3.20
2017,06,07,02,29,3.20
2017,06,07,02,30,3.20
2017,06,07,02,31,4.80
2017,06,07,02,32,6.40
2017,06,07,02,33,6.40
2017,06,07,02,34,8.10
2017,06,07,02,35,4.80
2017,06,07,02,36,4.80
2017,06,07,02,37,3.20
2017,06,07,02,38,3.20
2017,06,07,02,39,3.20
2017,06,07,02,40,1.60
2017,06,07,02,43,3.20
2017,06,07,02,44,3.20
2017,06,07,02,45,3.20
2017,06,07,02,46,3.20
2017,06,07,02,47,4.80
2017,06,07,02,48,4.80
2017,06,07,02,49,4.80
2017,06,07,02,50,3.20
2017,06,07,02,51,3.20
2017,06,07,02,52,4.80
2017,06,07,02,53,4.80
2017,06,07,02,54,4.80
2017,06,07,02,55,4.80
2017,06,07,02,56,4.80
2017,06,07,02,57,6.40
2017,06,07,02,58,8.10
2017,06,07,02,59,9.60
2017,06,07,03,00,9.60
2017,06,07,03,01,11.30
2017,06,07,03,02,9.60
2017,06,07,03,03,9.60
2017,06,07,03,04,9.60
2017,06,07,03,05,8.10
2017,06,07,03,06,4.80
2017,06,07,04,18,4.80
2017,06,07,04,19,4.80
2017,06,07,04,20,3.20
2017,06,07,04,21,3.20
2017,06,07,04,22,3.20
2017,06,07,04,23,3.20
2017,06,07,04,24,4.80
2017,06,07,04,25,4.80
2017,06,07,04,26,4.80
2017,06,07,04,27,4.80
2017,06,07,04,28,4.80
2017,06,07,04,29,4.80
2017,06,07,04,30,4.80
2017,06,07,04,31,4.80
2017,06,07,04,32,4.80
2017,06,07,04,33,4.80
2017,06,07,04,34,4.80
2017,06,07,04,35,4.80
2017,06,07,04,36,3.20
2017,06,07,04,37,4.80
2017,06,07,04,38,4.80
2017,06,07,04,39,4.80
2017,06,07,04,40,3.20
2017,06,07,04,41,3.20
2017,06,07,04,42,3.20
2017,06,07,04,43,3.20
2017,06,07,04,44,3.20
2017,06,07,04,45,3.20
2017,06,07,04,46,1.60
2017,06,07,04,47,1.60
2017,06,07,04,48,3.20
2017,06,07,04,49,3.20
2017,06,07,04,50,3.20
2017,06,07,04,51,1.60
2017,06,07,04,58,1.60
2017,06,07,04,59,3.20
2017,06,07,05,00,3.20
2017,06,07,05,01,4.80
2017,06,07,05,02,6.40
2017,06,07,05,03,6.40
2017,06,07,05,04,6.40
2017,06,07,05,05,4.80
2017,06,07,05,06,6.40
2017,06,07,05,07,6.40
2017,06,07,05,08,4.80
2017,06,07,05,09,3.20
2017,06,07,05,10,4.80
2017,06,07,05,11,4.80
2017,06,07,05,12,4.80
2017,06,07,05,13,4.80
2017,06,07,05,14,4.80
2017,06,07,05,15,4.80
2017,06,07,05,16,4.80
2017,06,07,05,17,3.20
2017,06,07,05,18,3.20
2017,06,07,05,19,1.60
2017,06,07,05,20,1.60
2017,06,07,05,21,3.20
2017,06,07,05,22,3.20
2017,06,07,05,23,3.20
2017,06,07,05,24,3.20
2017,06,07,05,25,3.20
2017,06,07,05,26,3.20
2017,06,07,05,27,3.20
2017,06,07,05,28,3.20
2017,06,07,05,29,3.20
2017,06,07,05,30,4.80
2017,06,07,05,31,4.80
2017,06,07,05,32,4.80
2017,06,07,05,33,4.80
2017,06,07,05,34,3.20
2017,06,07,05,35,3.20
2017,06,07,05,36,1.60
2017,06,07,05,46,4.80
2017,06,07,05,47,4.80
2017,06,07,05,48,4.80
2017,06,07,05,49,6.40
2017,06,07,05,50,8.10
2017,06,07,05,51,8.10
2017,06,07,05,52,6.40
2017,06,07,05,53,8.10
2017,06,07,05,54,8.10
2017,06,07,05,55,6.40
2017,06,07,05,56,6.40
2017,06,07,05,57,6.40
2017,06,07,05,58,8.10
2017,06,07,05,59,6.40
2017,06,07,06,00,6.40
2017,06,07,06,01,4.80
2017,06,07,06,02,4.80
2017,06,07,06,03,3.20
2017,06,07,06,04,4.80
2017,06,07,06,05,4.80
2017,06,07,06,06,4.80
2017,06,07,06,07,4.80
2017,06,07,06,08,6.40
2017,06,07,06,09,4.80
2017,06,07,06,10,6.40
2017,06,07,06,11,6.40
2017,06,07,06,12,6.40
2017,06,07,06,13,6.40
2017,06,07,06,14,8.10
2017,06,07,06,15,6.40
2017,06,07,06,16,6.40
2017,06,07,06,17,6.40
2017,06,07,06,18,6.40
2017,06,07,06,19,6.40
2017,06,07,06,20,6.40
2017,06,07,06,21,8.10
2017,06,07,06,22,6.40
2017,06,07,06,23,6.40
2017,06,07,06,24,6.40
2017,06,07,06,25,6.40
2017,06,07,06,26,6.40
2017,06,07,06,27,6.40
2017,06,07,06,28,4.80
2017,06,07,06,29,6.40
2017,06,07,06,30,4.80
2017,06,07,06,31,4.80
2017,06,07,06,32,4.80
2017,06,07,06,33,4.80
2017,06,07,06,34,6.40
2017,06,07,06,35,8.10
2017,06,07,06,36,8.10
2017,06,07,06,37,6.40
2017,06,07,06,38,8.10
2017,06,07,06,39,8.10
2017,06,07,06,40,8.10
2017,06,07,06,41,6.40
2017,06,07,06,42,6.40
2017,06,07,06,43,6.40
2017,06,07,06,44,4.80
2017,06,07,06,45,6.40
2017,06,07,06,46,6.40
2017,06,07,06,47,4.80
2017,06,07,06,48,4.80
2017,06,07,06,49,4.80
2017,06,07,06,50,4.80
2017,06,07,06,51,6.40
2017,06,07,06,52,6.40
2017,06,07,06,53,8.10
2017,06,07,06,54,6.40
2017,06,07,06,55,6.40
2017,06,07,06,56,6.40
2017,06,07,06,57,6.40
2017,06,07,06,58,6.40
2017,06,07,06,59,6.40
2017,06,07,07,00,6.40
2017,06,07,07,01,6.40
2017,06,07,07,02,6.40
2017,06,07,07,03,4.80
2017,06,07,07,04,6.40
2017,06,07,07,05,6.40
2017,06,07,07,06,4.80
2017,06,07,07,07,4.80
2017,06,07,07,08,6.40
2017,06,07,07,09,6.40
2017,06,07,07,10,6.40
2017,06,07,07,11,6.40
2017,06,07,07,12,4.80
2017,06,07,07,13,4.80
2017,06,07,07,14,4.80
2017,06,07,07,15,3.20
2017,06,07,07,16,3.20
2017,06,07,07,17,4.80
2017,06,07,07,18,4.80
2017,06,07,07,19,4.80
2017,06,07,07,20,4.80
2017,06,07,07,21,4.80
2017,06,07,07,22,4.80
2017,06,07,07,23,4.80
2017,06,07,07,24,4.80
2017,06,07,07,25,4.80
2017,06,07,07,26,3.20
2017,06,07,07,27,3.20
2017,06,07,07,28,1.60
2017,06,07,07,29,1.60
2017,06,07,07,30,1.60
2017,06,07,07,31,1.60
2017,06,07,07,33,1.60
2017,06,07,07,34,1.60
2017,06,07,07,35,3.20
2017,06,07,07,36,3.20
2017,06,07,07,37,3.20
2017,06,07,07,38,3.20
2017,06,07,07,39,3.20
2017,06,07,07,40,3.20
2017,06,07,07,41,3.20
2017,06,07,07,42,3.20
2017,06,07,07,43,3.20
2017,06,07,07,44,3.20
2017,06,07,07,45,4.80
2017,06,07,07,46,6.40
2017,06,07,07,47,6.40
2017,06,07,07,48,6.40
2017,06,07,07,49,6.40
2017,06,07,07,50,6.40
2017,06,07,07,51,8.10
2017,06,07,07,52,8.10
2017,06,07,07,53,8.10
2017,06,07,07,54,11.30
2017,06,07,07,55,11.30
2017,06,07,07,56,9.60
2017,06,07,07,57,8.10
2017,06,07,07,58,8.10
2017,06,07,07,59,6.40
2017,06,07,08,00,8.10
2017,06,07,08,01,6.40
2017,06,07,08,02,6.40
2017,06,07,08,03,8.10
2017,06,07,08,04,11.30
2017,06,07,08,05,11.30
2017,06,07,08,06,11.30
2017,06,07,08,07,11.30
2017,06,07,08,08,11.30
2017,06,07,08,09,11.30
2017,06,07,08,10,11.30
2017,06,07,08,11,8.10
2017,06,07,08,12,8.10
2017,06,07,08,13,8.10
2017,06,07,08,14,11.30
2017,06,07,08,15,8.10
2017,06,07,08,16,8.10
2017,06,07,08,17,8.10
2017,06,07,08,18,6.40
2017,06,07,08,19,6.40
2017,06,07,08,20,6.40
2017,06,07,08,21,4.80
2017,06,07,08,22,4.80
2017,06,07,08,23,4.80
2017,06,07,08,24,6.40
2017,06,07,08,25,6.40
2017,06,07,08,26,4.80
2017,06,07,08,27,4.80
2017,06,07,08,28,4.80
2017,06,07,08,29,4.80
2017,06,07,08,30,4.80
2017,06,07,08,31,4.80
2017,06,07,08,32,4.80
2017,06,07,08,33,4.80
2017,06,07,08,34,3.20
2017,06,07,08,35,1.60
2017,06,07,08,36,1.60
2017,06,07,08,37,1.60
2017,06,07,08,38,1.60
2017,06,07,08,39,1.60
2017,06,07,08,43,9.60
2017,06,07,08,44,9.60
2017,06,07,08,45,11.30
2017,06,07,08,46,12.90
2017,06,07,08,47,11.30
2017,06,07,08,48,12.90
2017,06,07,08,49,11.30
2017,06,07,08,50,11.30
2017,06,07,08,51,11.30
2017,06,07,08,52,9.60
2017,06,07,08,53,9.60
2017,06,07,08,54,9.60
2017,06,07,08,55,9.60
2017,06,07,08,56,8.10
2017,06,07,08,57,8.10
2017,06,07,08,58,8.10
2017,06,07,08,59,6.40
2017,06,07,09,00,8.10
2017,06,07,09,01,8.10
2017,06,07,09,02,8.10
2017,06,07,09,03,8.10
2017,06,07,09,04,8.10
2017,06,07,09,05,8.10
2017,06,07,09,06,9.60
2017,06,07,09,07,11.30
2017,06,07,09,08,9.60
2017,06,07,09,09,9.60
2017,06,07,09,10,9.60
2017,06,07,09,11,9.60
2017,06,07,09,12,9.60
2017,06,07,09,13,9.60
2017,06,07,09,14,9.60
2017,06,07,09,15,9.60
2017,06,07,09,16,9.60
2017,06,07,09,17,9.60
2017,06,07,09,18,9.60
2017,06,07,09,19,9.60
2017,06,07,09,20,9.60
2017,06,07,09,21,9.60
2017,06,07,09,22,9.60
2017,06,07,09,23,9.60
2017,06,07,09,24,9.60
2017,06,07,09,25,8.10
2017,06,07,09,26,6.40
2017,06,07,09,27,6.40
2017,06,07,09,28,6.40
2017,06,07,09,29,9.60
2017,06,07,09,30,9.60
2017,06,07,09,31,9.60
2017,06,07,09,32,11.30
2017,06,07,09,33,11.30
2017,06,07,09,34,11.30
2017,06,07,09,35,11.30
2017,06,07,09,36,11.30
2017,06,07,09,37,12.90
2017,06,07,09,38,12.90
2017,06,07,09,39,12.90
2017,06,07,09,40,12.90
2017,06,07,09,41,12.90
2017,06,07,09,42,12.90
2017,06,07,09,43,12.90
2017,06,07,09,44,11.30
2017,06,07,09,45,11.30
2017,06,07,09,46,11.30
2017,06,07,09,47,9.60
2017,06,07,09,48,11.30
2017,06,07,09,49,11.30
2017,06,07,09,50,11.30
2017,06,07,09,51,9.60
2017,06,07,09,52,11.30
2017,06,07,09,53,11.30
2017,06,07,09,54,11.30
2017,06,07,09,55,9.60
2017,06,07,09,56,9.60
2017,06,07,09,57,9.60
2017,06,07,09,58,9.60
2017,06,07,09,59,11.30
2017,06,07,10,00,11.30
2017,06,07,10,01,9.60
2017,06,07,10,02,11.30
2017,06,07,10,03,11.30
2017,06,07,10,04,11.30
2017,06,07,10,05,11.30
2017,06,07,10,06,11.30
2017,06,07,10,07,9.60
2017,06,07,10,08,11.30
2017,06,07,10,09,12.90
2017,06,07,10,10,11.30
2017,06,07,10,11,12.90
2017,06,07,10,12,12.90
2017,06,07,10,13,14.50
2017,06,07,10,14,12.90
2017,06,07,10,15,12.90
2017,06,07,10,16,14.50
2017,06,07,10,17,12.90
2017,06,07,10,18,12.90
2017,06,07,10,19,9.60
2017,06,07,10,20,8.10
2017,06,07,10,21,6.40
2017,06,07,10,22,9.60
2017,06,07,10,23,11.30
2017,06,07,10,24,11.30
2017,06,07,10,25,11.30
2017,06,07,10,26,9.60
2017,06,07,10,27,9.60
2017,06,07,10,28,9.60
2017,06,07,10,29,9.60
2017,06,07,10,30,9.60
2017,06,07,10,31,11.30
2017,06,07,10,32,8.10
2017,06,07,10,33,11.30
2017,06,07,10,34,11.30
2017,06,07,10,35,12.90
2017,06,07,10,36,12.90
2017,06,07,10,37,11.30
2017,06,07,10,38,11.30
2017,06,07,10,39,11.30
2017,06,07,10,40,12.90
2017,06,07,10,41,14.50
2017,06,07,10,42,12.90
2017,06,07,10,43,12.90
2017,06,07,10,44,12.90
2017,06,07,10,45,12.90
2017,06,07,10,46,14.50
2017,06,07,10,47,14.50
2017,06,07,10,48,12.90
2017,06,07,10,49,12.90
2017,06,07,10,50,12.90
2017,06,07,10,51,14.50
2017,06,07,10,52,14.50
2017,06,07,10,53,14.50
2017,06,07,10,54,14.50
2017,06,07,10,55,14.50
2017,06,07,10,56,12.90
2017,06,07,10,57,12.90
2017,06,07,10,58,12.90
2017,06,07,10,59,14.50
2017,06,07,11,00,14.50
2017,06,07,11,01,14.50
2017,06,07,11,02,14.50
2017,06,07,11,03,14.50
2017,06,07,11,04,14.50
2017,06,07,11,05,14.50
2017,06,07,11,06,12.90
2017,06,07,11,07,12.90
2017,06,07,11,08,12.90
2017,06,07,11,09,12.90
2017,06,07,11,10,12.90
2017,06,07,11,11,12.90
2017,06,07,11,12,12.90
2017,06,07,11,13,14.50
2017,06,07,11,14,16.10
2017,06,07,11,15,16.10
2017,06,07,11,16,14.50
2017,06,07,11,17,16.10
2017,06,07,11,18,16.10
2017,06,07,11,19,14.50
2017,06,07,11,20,14.50
2017,06,07,11,21,16.10
2017,06,07,11,22,12.90
2017,06,07,11,23,14.50
2017,06,07,11,24,16.10
2017,06,07,11,25,16.10
2017,06,07,11,26,14.50
2017,06,07,11,27,16.10
2017,06,07,11,28,14.50
2017,06,07,11,29,14.50
2017,06,07,11,30,16.10
2017,06,07,11,31,14.50
2017,06,07,11,32,14.50
2017,06,07,11,33,14.50
2017,06,07,11,34,14.50
2017,06,07,11,35,14.50
2017,06,07,11,36,11.30
2017,06,07,11,37,12.90
2017,06,07,11,38,12.90
2017,06,07,11,39,14.50
2017,06,07,11,40,14.50
2017,06,07,11,41,14.50
2017,06,07,11,42,16.10
2017,06,07,11,43,14.50
2017,06,07,11,44,12.90
2017,06,07,11,45,14.50
2017,06,07,11,46,12.90
2017,06,07,11,47,12.90
2017,06,07,11,48,14.50
2017,06,07,11,49,11.30
2017,06,07,11,50,12.90
2017,06,07,11,51,14.50
2017,06,07,11,52,9.60
2017,06,07,11,53,12.90
2017,06,07,11,54,11.30
2017,06,07,11,55,11.30
2017,06,07,11,56,12.90
2017,06,07,11,57,12.90
2017,06,07,11,58,12.90
2017,06,07,11,59,14.50
2017,06,07,12,00,17.70
2017,06,07,12,01,17.70
2017,06,07,12,02,14.50
2017,06,07,12,03,14.50
2017,06,07,12,04,16.10
2017,06,07,12,05,14.50
2017,06,07,12,06,16.10
2017,06,07,12,07,14.50
2017,06,07,12,08,14.50
2017,06,07,12,09,16.10
2017,06,07,12,10,16.10
2017,06,07,12,11,16.10
2017,06,07,12,12,16.10
2017,06,07,12,13,16.10
2017,06,07,12,14,14.50
2017,06,07,12,15,14.50
2017,06,07,12,16,14.50
2017,06,07,12,17,14.50
2017,06,07,12,18,16.10
2017,06,07,12,19,16.10
2017,06,07,12,20,16.10
2017,06,07,12,21,14.50
2017,06,07,12,22,12.90
2017,06,07,12,23,14.50
2017,06,07,12,24,14.50
2017,06,07,12,25,14.50
2017,06,07,12,26,16.10
2017,06,07,12,27,14.50
2017,06,07,12,28,14.50
2017,06,07,12,29,12.90
2017,06,07,12,30,12.90
2017,06,07,12,31,11.30
2017,06,07,12,32,11.30
2017,06,07,12,33,11.30
2017,06,07,12,34,12.90
2017,06,07,12,35,12.90
2017,06,07,12,36,12.90
2017,06,07,12,37,12.90
2017,06,07,12,38,11.30
2017,06,07,12,39,11.30
2017,06,07,12,40,9.60
2017,06,07,12,41,11.30
2017,06,07,12,42,11.30
2017,06,07,12,43,11.30
2017,06,07,12,44,11.30
2017,06,07,12,45,11.30
2017,06,07,12,46,12.90
2017,06,07,12,47,12.90
2017,06,07,12,48,14.50
2017,06,07,12,49,12.90
2017,06,07,12,50,12.90
2017,06,07,12,51,14.50
2017,06,07,12,52,14.50
2017,06,07,12,53,12.90
2017,06,07,12,54,14.50
2017,06,07,12,55,12.90
2017,06,07,12,56,12.90
2017,06,07,12,57,14.50
2017,06,07,12,58,16.10
2017,06,07,12,59,14.50
2017,06,07,13,00,14.50
2017,06,07,13,01,14.50
2017,06,07,13,02,14.50
2017,06,07,13,03,12.90
2017,06,07,13,04,12.90
2017,06,07,13,05,14.50
2017,06,07,13,06,12.90
2017,06,07,13,07,11.30
2017,06,07,13,08,11.30
2017,06,07,13,09,11.30
2017,06,07,13,10,11.30
2017,06,07,13,11,11.30
2017,06,07,13,12,9.60
2017,06,07,13,13,11.30
2017,06,07,13,14,8.10
2017,06,07,13,15,9.60
2017,06,07,13,16,12.90
2017,06,07,13,17,11.30
2017,06,07,13,18,8.10
2017,06,07,13,19,6.40
2017,06,07,13,20,8.10
2017,06,07,13,21,6.40
2017,06,07,13,22,8.10
2017,06,07,13,23,6.40
2017,06,07,13,24,11.30
2017,06,07,13,25,8.10
2017,06,07,13,26,8.10
2017,06,07,13,27,6.40
2017,06,07,13,28,11.30
2017,06,07,13,29,9.60
2017,06,07,13,30,11.30
2017,06,07,13,31,11.30
2017,06,07,13,32,14.50
2017,06,07,13,33,9.60
2017,06,07,13,34,11.30
2017,06,07,13,35,11.30
2017,06,07,13,36,11.30
2017,06,07,13,37,11.30
2017,06,07,13,38,9.60
2017,06,07,13,39,9.60
2017,06,07,13,40,11.30
2017,06,07,13,41,12.90
2017,06,07,13,42,12.90
2017,06,07,13,43,12.90
2017,06,07,13,44,11.30
2017,06,07,13,45,11.30
2017,06,07,13,46,9.60
2017,06,07,13,47,8.10
2017,06,07,13,48,6.40
2017,06,07,13,49,6.40
2017,06,07,13,50,6.40
2017,06,07,13,51,8.10
2017,06,07,13,52,9.60
2017,06,07,13,53,11.30
2017,06,07,13,54,8.10
2017,06,07,13,55,9.60
2017,06,07,13,56,11.30
2017,06,07,13,57,11.30
2017,06,07,13,58,9.60
2017,06,07,13,59,11.30
2017,06,07,14,00,8.10
2017,06,07,14,01,9.60
2017,06,07,14,02,11.30
2017,06,07,14,03,11.30
2017,06,07,14,04,11.30
2017,06,07,14,05,11.30
2017,06,07,14,06,12.90
2017,06,07,14,07,12.90
2017,06,07,14,08,11.30
2017,06,07,14,09,9.60
2017,06,07,14,10,9.60
2017,06,07,14,11,8.10
2017,06,07,14,12,8.10
2017,06,07,14,13,11.30
2017,06,07,14,14,11.30
2017,06,07,14,15,8.10
2017,06,07,14,16,8.10
2017,06,07,14,17,11.30
2017,06,07,14,18,8.10
2017,06,07,14,19,8.10
2017,06,07,14,20,6.40
2017,06,07,14,21,6.40
2017,06,07,14,22,8.10
2017,06,07,14,23,9.60
2017,06,07,14,24,8.10
2017,06,07,14,25,8.10
2017,06,07,14,26,6.40
2017,06,07,14,27,8.10
2017,06,07,14,28,8.10
2017,06,07,14,29,8.10
2017,06,07,14,30,8.10
2017,06,07,14,31,8.10
2017,06,07,14,32,11.30
2017,06,07,14,33,11.30
2017,06,07,14,34,11.30
2017,06,07,14,35,11.30
2017,06,07,14,36,12.90
2017,06,07,14,37,12.90
2017,06,07,14,38,11.30
2017,06,07,14,39,11.30
2017,06,07,14,40,11.30
2017,06,07,14,41,11.30
2017,06,07,14,42,12.90
2017,06,07,14,43,11.30
2017,06,07,14,44,12.90
2017,06,07,14,45,11.30
2017,06,07,14,46,14.50
2017,06,07,14,47,11.30
2017,06,07,14,48,11.30
2017,06,07,14,49,14.50
2017,06,07,14,50,14.50
2017,06,07,14,51,11.30
2017,06,07,14,52,12.90
2017,06,07,14,53,8.10
2017,06,07,14,54,8.10
2017,06,07,14,55,9.60
2017,06,07,14,56,9.60
2017,06,07,14,57,11.30
2017,06,07,14,58,14.50
2017,06,07,14,59,12.90
2017,06,07,15,00,11.30
2017,06,07,15,01,12.90
2017,06,07,15,02,12.90
2017,06,07,15,03,6.40
2017,06,07,15,04,3.20
2017,06,07,15,05,4.80
2017,06,07,15,06,8.10
2017,06,07,15,07,6.40
2017,06,07,15,08,11.30
2017,06,07,15,09,14.50
2017,06,07,15,10,12.90
2017,06,07,15,11,8.10
2017,06,07,15,12,9.60
2017,06,07,15,13,8.10
2017,06,07,15,14,6.40
2017,06,07,15,15,8.10
2017,06,07,15,16,9.60
2017,06,07,15,17,9.60
2017,06,07,15,18,9.60
2017,06,07,15,19,3.20
2017,06,07,15,20,9.60
2017,06,07,15,21,6.40
2017,06,07,15,22,9.60
2017,06,07,15,23,11.30
2017,06,07,15,24,9.60
2017,06,07,15,25,9.60
2017,06,07,15,26,11.30
2017,06,07,15,27,11.30
2017,06,07,15,28,11.30
2017,06,07,15,29,11.30
2017,06,07,15,30,11.30
2017,06,07,15,31,14.50
2017,06,07,15,32,12.90
2017,06,07,15,33,12.90
2017,06,07,15,34,12.90
2017,06,07,15,35,14.50
2017,06,07,15,36,14.50
2017,06,07,15,37,14.50
2017,06,07,15,38,16.10
2017,06,07,15,39,12.90
2017,06,07,15,40,12.90
2017,06,07,15,41,16.10
2017,06,07,15,42,14.50
2017,06,07,15,43,14.50
2017,06,07,15,44,12.90
2017,06,07,15,45,14.50
2017,06,07,15,46,16.10
2017,06,07,15,47,14.50
2017,06,07,15,48,16.10
2017,06,07,15,49,14.50
2017,06,07,15,50,16.10
2017,06,07,15,51,16.10
2017,06,07,15,52,14.50
2017,06,07,15,53,12.90
2017,06,07,15,54,17.70
2017,06,07,15,55,14.50
2017,06,07,15,56,12.90
2017,06,07,15,57,12.90
2017,06,07,15,58,14.50
2017,06,07,15,59,14.50
2017,06,07,16,00,12.90
2017,06,07,16,01,14.50
2017,06,07,16,02,17.70
2017,06,07,16,03,16.10
2017,06,07,16,04,16.10
2017,06,07,16,05,12.90
2017,06,07,16,06,12.90
2017,06,07,16,07,8.10
2017,06,07,16,08,14.50
2017,06,07,16,09,14.50
2017,06,07,16,10,14.50
2017,06,07,16,11,8.10
2017,06,07,16,12,9.60
2017,06,07,16,13,9.60
2017,06,07,16,14,8.10
2017,06,07,16,15,9.60
2017,06,07,16,16,9.60
2017,06,07,16,17,9.60
2017,06,07,16,18,12.90
2017,06,07,16,19,9.60
2017,06,07,16,20,6.40
2017,06,07,16,21,9.60
2017,06,07,16,22,9.60
2017,06,07,16,23,9.60
2017,06,07,16,24,12.90
2017,06,07,16,25,9.60
2017,06,07,16,26,9.60
2017,06,07,16,27,9.60
2017,06,07,16,28,8.10
2017,06,07,16,29,8.10
2017,06,07,16,30,14.50
2017,06,07,16,31,11.30
2017,06,07,16,32,14.50
2017,06,07,16,33,11.30
2017,06,07,16,34,8.10
2017,06,07,16,35,11.30
2017,06,07,16,36,12.90
2017,06,07,16,37,11.30
2017,06,07,16,38,9.60
2017,06,07,16,39,9.60
2017,06,07,16,40,9.60
2017,06,07,16,41,14.50
2017,06,07,16,42,14.50
2017,06,07,16,43,14.50
2017,06,07,16,44,14.50
2017,06,07,16,45,12.90
2017,06,07,16,46,11.30
2017,06,07,16,47,11.30
2017,06,07,16,48,9.60
2017,06,07,16,49,14.50
2017,06,07,16,50,12.90
2017,06,07,16,51,11.30
2017,06,07,16,52,11.30
2017,06,07,16,53,12.90
2017,06,07,16,54,14.50
2017,06,07,16,55,14.50
2017,06,07,16,56,11.30
2017,06,07,16,57,6.40
2017,06,07,16,58,12.90
2017,06,07,16,59,14.50
2017,06,07,17,00,14.50
2017,06,07,17,01,11.30
2017,06,07,17,02,16.10
2017,06,07,17,03,17.70
2017,06,07,17,04,17.70
2017,06,07,17,05,19.30
2017,06,07,17,06,17.70
2017,06,07,17,07,11.30
2017,06,07,17,08,16.10
2017,06,07,17,09,17.70
2017,06,07,17,10,17.70
2017,06,07,17,11,11.30
2017,06,07,17,12,11.30
2017,06,07,17,13,6.40
2017,06,07,17,14,8.10
2017,06,07,17,15,6.40
2017,06,07,17,16,8.10
2017,06,07,17,17,6.40
2017,06,07,17,18,4.80
2017,06,07,17,19,8.10
2017,06,07,17,20,11.30
2017,06,07,17,21,14.50
2017,06,07,17,22,14.50
2017,06,07,17,23,17.70
2017,06,07,17,24,16.10
2017,06,07,17,25,14.50
2017,06,07,17,26,12.90
2017,06,07,17,27,19.30
2017,06,07,17,28,14.50
2017,06,07,17,29,17.70
2017,06,07,17,30,17.70
2017,06,07,17,31,12.90
2017,06,07,17,32,14.50
2017,06,07,17,33,16.10
2017,06,07,17,34,14.50
2017,06,07,17,35,12.90
2017,06,07,17,36,8.10
2017,06,07,17,37,3.20
2017,06,07,17,38,6.40
2017,06,07,17,39,4.80
2017,06,07,17,40,4.80
2017,06,07,17,41,6.40
2017,06,07,17,42,6.40
2017,06,07,17,43,11.30
2017,06,07,17,44,11.30
2017,06,07,17,45,11.30
2017,06,07,17,46,11.30
2017,06,07,17,47,8.10
2017,06,07,17,48,6.40
2017,06,07,17,49,6.40
2017,06,07,17,50,8.10
2017,06,07,17,51,8.10
2017,06,07,17,52,11.30
2017,06,07,17,53,8.10
2017,06,07,17,54,9.60
2017,06,07,17,55,8.10
2017,06,07,17,56,11.30
2017,06,07,17,57,11.30
2017,06,07,17,58,9.60
2017,06,07,17,59,9.60
2017,06,07,18,00,8.10
2017,06,07,18,01,9.60
2017,06,07,18,02,8.10
2017,06,07,18,03,8.10
2017,06,07,18,04,8.10
2017,06,07,18,05,8.10
2017,06,07,18,06,8.10
2017,06,07,18,07,8.10
2017,06,07,18,08,6.40
2017,06,07,18,09,6.40
2017,06,07,18,10,8.10
2017,06,07,18,11,9.60
2017,06,07,18,12,11.30
2017,06,07,18,13,9.60
2017,06,07,18,14,9.60
2017,06,07,18,15,11.30
2017,06,07,18,16,8.10
2017,06,07,18,17,8.10
2017,06,07,18,18,6.40
2017,06,07,18,19,6.40
2017,06,07,18,20,6.40
2017,06,07,18,21,8.10
2017,06,07,18,22,8.10
2017,06,07,18,23,8.10
2017,06,07,18,24,8.10
2017,06,07,18,25,8.10
2017,06,07,18,26,8.10
2017,06,07,18,27,6.40
2017,06,07,18,28,6.40
2017,06,07,18,29,6.40
2017,06,07,18,30,6.40
2017,06,07,18,31,6.40
2017,06,07,18,32,6.40
2017,06,07,18,33,4.80
2017,06,07,18,34,9.60
2017,06,07,18,35,11.30
2017,06,07,18,36,11.30
2017,06,07,18,37,11.30
2017,06,07,18,38,9.60
2017,06,07,18,39,9.60
2017,06,07,18,40,9.60
2017,06,07,18,41,9.60
2017,06,07,18,42,6.40
2017,06,07,18,43,6.40
2017,06,07,18,44,6.40
2017,06,07,18,45,6.40
2017,06,07,18,46,9.60
2017,06,07,18,47,6.40
2017,06,07,18,48,4.80
2017,06,07,18,49,3.20
2017,06,07,18,50,4.80
2017,06,07,18,51,6.40
2017,06,07,18,52,9.60
2017,06,07,18,53,9.60
2017,06,07,18,54,9.60
2017,06,07,18,55,9.60
2017,06,07,18,56,11.30
2017,06,07,18,57,12.90
2017,06,07,18,58,11.30
2017,06,07,18,59,12.90
2017,06,07,19,00,11.30
2017,06,07,19,01,9.60
2017,06,07,19,02,4.80
2017,06,07,19,03,6.40
2017,06,07,19,04,4.80
2017,06,07,19,06,3.20
2017,06,07,19,07,6.40
2017,06,07,19,08,9.60
2017,06,07,19,09,9.60
2017,06,07,19,10,6.40
2017,06,07,19,11,4.80
2017,06,07,19,12,4.80
2017,06,07,19,13,4.80
2017,06,07,19,14,4.80
2017,06,07,19,15,1.60
2017,06,07,19,16,1.60
2017,06,07,19,17,1.60
2017,06,07,19,18,1.60
2017,06,07,19,19,1.60
2017,06,07,19,20,1.60
2017,06,07,19,21,1.60
2017,06,07,19,22,1.60
2017,06,07,19,23,1.60
2017,06,07,19,24,1.60
2017,06,07,19,25,1.60
2017,06,07,19,26,1.60